Regional Weather Roundup
Issued by NWS New Orleans/Baton Rouge, LA

Home | Current Version | Previous Version | Graphics & Text | Print | Product List | Glossary On
Versions: 1 2 3 4 5 6 7 8 9 10 11 12 13 14 15 16 17 18 19 20 21 22 23 24 25 26 27 28 29 30 31 32 33 34 35 36 37 38 39 40 41 42 43 44 45 46 47 48 49 50
422
ASUS44 KLIX 011901
RWRLIX
NEW ORLEANS REGIONAL WEATHER ROUNDUP
NATIONAL WEATHER SERVICE NEW ORLEANS LA
200 PM CDT FRI AUG 01 2014

NOTE: "FAIR" INDICATES FEW OR NO CLOUDS BELOW 12,000 FEET WITH NO
      SIGNIFICANT WEATHER AND/OR OBSTRUCTIONS TO VISIBILITY.
      SKY/WX - SKY CONDITION AND SIGNIFICANT WEATHER.
      TMP - AIR TEMPERATURE.     DP    - DEWPOINT TEMPERATURE.
      RH  - RELATIVE HUMIDITY.   PRES  - PRESSURE.
      HI  - HEAT INDEX.          WCI   - WIND CHILL INDEX.

*  THESE STATIONS ARE NOT NWS OR FAA STATIONS AND ARE NOT UNDER
   NWS QUALITY CONTROL.

LAZ038-040-048-061>063-065>067-069-012000-
SOUTHEAST LOUISIANA

CITY           SKY/WX    TMP DP  RH WIND       PRES   REMARKS
N.O. AUDUBON     N/A     90  70  51 MISG        N/A  HX  95
N.O. INTL ARPT CLOUDY    88  66  48 CALM      29.99F
N.O. LAKEFRONT CLOUDY    86  65  49 NE9       30.00F
N.O. DOWNTOWN* MOCLDY    90  66  45 S5        30.00F
SLIDELL        CLOUDY    85  68  56 NE5       29.99F
BATON ROUGE    LGT RAIN  74  71  91 S10       30.00R
BOOTHVILLE     CLOUDY    84  68  58 E3        30.01F
BELLE CHASSE   PTSUNNY   89  67  47 E6        29.99F
BOGALUSA*        N/A     82  68  62 NE6       30.03F
GALLIANO*      NOT AVBL
NEW ROADS*     CLOUDY    79  75  87 SE6       29.99S
GONZALES*      CLOUDY    85  69  58 S7        29.99S
HAMMOND*       NOT AVBL
HOUMA*         PTSUNNY   90  64  43 SE3       30.00F
PORT FOURCHON* CLEAR     84  70  61 SE6       30.01F

$$

MSZ070-080>082-012000-
SOUTHERN MISSISSIPPI

CITY           SKY/WX    TMP DP  RH WIND       PRES   REMARKS
MCCOMB         CLOUDY    75  69  81 VRB3      30.02F
GULFPORT       CLOUDY    86  66  51 NE5       30.00F
BILOXI         CLOUDY    82  68  63 NE6       30.01F
PASCAGOULA     CLOUDY    85  66  53 N7        30.01F
STENNIS ARPT*  SUNNY    N/A N/A N/A NE6       30.01S

$$

COASTAL OBSERVATIONS
LAKE AND NEARSHORE STATIONS

STATION/POSITION TIME  TEMP    WIND        PRES    WAVE
                       AIR SEA DIR/SP/G            HT/PER
                 (UTC) (F)     (DEG/KT/KT) (MB)    (FT/S)
PASCAGOULA       1800   83     220/  1/  4 1015.7
WAVELAND YACHT   1800   81      50/  7/  9 1015.6
GRAND ISLE       1800   84 86  110/  4/  7 1016.5
SOUTHWEST PASS   1800   90 85  100/  4/  6 1016.3
NEW CANAL        1800   83 83   60/ 10/ 11 1016.1
SHELL BEACH      1800   83 82   10/  6/  7 1015.8

OFFSHORE STATIONS

STATION/POSITION TIME  TEMP    WIND        PRES    WAVE
                       AIR SEA DIR/SP/G            HT/PER
                 (UTC) (F)     (DEG/KT/KT) (MB)    (FT/S)
64 S DAUPHIN ISL 1850   84 87   CALM  /  2 1016.2

$$




USA.gov is the U.S. government's official web portal to all federal, state and local government web resources and services.